Skip Page Navigation
NASA JPL Caltech
NASA Logo - Jet Propulsion Laboratory + View the NASA Portal
+ Center for Near-Earth Object Studies
JPL Home Earth Solar System Stars & Galaxies Technology
JPL Solar System Dynamics
BODIES ORBITS EPHEMERIDES TOOLS PHYSICAL DATA DISCOVERY FAQ SITE MAP
JPL Small-Body Database Browser
Search: [ help ]  
(2013 VH2)
Classification: Apollo [NEO]          SPK-ID: 3653411
Ephemeris | Orbit Diagram | Orbital Elements | Mission Design | Physical Parameters | Close-Approach Data ]

[ hide orbit diagram ]

For accurate long-term ephemerides, please instead use our Horizons system.This orbit viewer was implemented using two-body methods, and hence should not be used for determining accurate long-term trajectories (over several years or decades) or planetary encounter circumstances.


[ revert to old Java-based viewer ]

Orbital Elements at Epoch 2456599.5 (2013-Nov-03.0) TDB
Reference: JPL 5 (heliocentric ecliptic J2000)
 Element Value Uncertainty (1-sigma)   Units 
e .5993491338160467 0.0020001  
a 2.495855714510291 0.01256 au
q .9999667538887177 4.0284e-05 au
i 3.829359152406624 0.0093192 deg
node 221.6655783352748 0.00064799 deg
peri 197.7494191130828 0.00060019 deg
M 356.0601767642988 0.031741 deg
tp 2456615.261657135336
(2013-Nov-18.76165714)
0.0080175 TDB
period 1440.216027283521
3.94
10.871
0.02976
d
yr
n .2499625008888547 0.0018868 deg/d
Q 3.991744675131865 0.020088 au
  Orbit Determination Parameters
   # obs. used (total)      26  
   data-arc span      4 days  
   first obs. used      2013-11-02  
   last obs. used      2013-11-06  
   planetary ephem.      DE431  
   SB-pert. ephem.      SB431-N16  
   condition code      8  
   norm. resid. RMS      .6332  
   source      ORB  
   producer      Otto Matic  
   solution date      2017-Apr-06 08:43:52  

Additional Information
 Earth MOID = .0179742 au 
 Jupiter MOID = 1.3899 au 
 T_jup = 3.191 
[ show covariance matrix ]

Ephemeris | Orbit Diagram | Orbital Elements | Mission Design | Physical Parameters | Close-Approach Data ]

Physical Parameter Table
Parameter Symbol Value Units Sigma Reference Notes
absolute magnitude H 27.4   n/a MPO275427  

[ show close-approach data ]
Ephemeris | Orbit Diagram | Orbital Elements | Mission Design | Physical Parameters | Close-Approach Data ]
ABOUT SSD CREDITS/AWARDS PRIVACY/COPYRIGHT GLOSSARY LINKS
FirstGov 2020-Oct-22 13:56 UT
(server date/time)  
NASA Home Page
Site Manager:   Ryan S. Park
Webmaster  Alan B. Chamberlin